Monroe, MI

12:13 PM EST on January 23, 2017 (GMT -0500)
Custer

Weather History for KTTF - June, 2013

Change the Weather History Date:

Saturday, June 22, 2013

  Actual Average Record
Temperature  
Mean Temperature 80 °F -  
Max Temperature 91 °F 80 °F 95 °F (1941)
Min Temperature 69 °F 61 °F 44 °F (1992)
Cooling Degree Days 15    
Growing Degree Days 30 (Base 50)    
Moisture  
Dew Point 68 °F    
Average Humidity 73    
Maximum Humidity 94    
Minimum Humidity 52    
Precipitation  
Precipitation 0.00 in - - ()
Sea Level Pressure  
Sea Level Pressure 30.06 in    
Wind  
Wind Speed 6 mph (SW)    
Max Wind Speed 21 mph    
Max Gust Speed 30 mph    
Visibility 9 miles    
Events Rain    
Averages and records for this station are not official NWS values.
T = Trace of Precipitation, MM = Missing Value Source: NWS Daily Summary

Daily Weather History Graph

Daily Weather History Graph

Search for Another Location

Airport or City:

Trip Planner

Search our weather history database for the weather conditions in past years. The results will help you decide how hot, cold, wet, or windy it might be!

Date:

Astronomy

Jun. 22, 2013 Rise Set
Actual Time 5:58 AM EDT 9:12 PM EDT
Civil Twilight 5:24 AM EDT 9:47 PM EDT
Nautical Twilight 4:39 AM EDT 10:31 PM EDT
Astronomical Twilight 3:46 AM EDT 11:25 PM EDT
Moon 8:25 PM EDT (6/22) 5:11 AM EDT (6/22)
Length of Visible Light 16h 22m
Length of Day
15h 14m
Waxing Gibbous, 99% of the Moon is Illuminated
Jun 22
Waxing Gibbous
Jun 23
Full
Jun 30
Last Quarter
Jul 8
New
Jul 15
First Quarter

Hourly Weather History & Observations

Time (EDT) Temp. Heat Index Dew Point Humidity Pressure Visibility Wind Dir Wind Speed Gust Speed Precip Events Conditions
12:13 AM 73.4 °F - 62.6 °F 69% 30.11 in 10.0 mi SSE 4.6 mph - N/A   Clear
12:33 AM 73.4 °F - 62.6 °F 69% 30.10 in 10.0 mi South 4.6 mph - N/A   Clear
12:53 AM 73.4 °F - 60.8 °F 65% 30.10 in 10.0 mi SSE 5.8 mph - N/A   Clear
1:13 AM 73.4 °F - 60.8 °F 65% 30.09 in 10.0 mi South 3.5 mph - N/A   Clear
1:33 AM 73.4 °F - 60.8 °F 65% 30.09 in 10.0 mi South 5.8 mph - N/A   Clear
1:53 AM 73.4 °F - 62.6 °F 69% 30.08 in 10.0 mi South 4.6 mph - N/A   Clear
2:14 AM 73.4 °F - 62.6 °F 69% 30.08 in 10.0 mi South 4.6 mph - N/A   Clear
2:34 AM 71.6 °F - 62.6 °F 73% 30.08 in 10.0 mi South 3.5 mph - N/A   Clear
2:54 AM 73.4 °F - 62.6 °F 69% 30.08 in 10.0 mi South 4.6 mph - N/A   Clear
3:14 AM 71.6 °F - 62.6 °F 73% 30.07 in 10.0 mi South 3.5 mph - N/A   Clear
3:34 AM 71.6 °F - 62.6 °F 73% 30.06 in 10.0 mi South 5.8 mph - N/A   Clear
3:54 AM 73.4 °F - 62.6 °F 69% 30.05 in 10.0 mi SSW 4.6 mph - N/A   Scattered Clouds
4:14 AM 73.4 °F - 62.6 °F 69% 30.05 in 10.0 mi SSW 5.8 mph - N/A   Scattered Clouds
4:34 AM 71.6 °F - 62.6 °F 73% 30.05 in 10.0 mi SSW 4.6 mph - N/A   Clear
4:54 AM 71.6 °F - 62.6 °F 73% 30.05 in 10.0 mi SSW 4.6 mph - N/A   Clear
5:15 AM 71.6 °F - 62.6 °F 73% 30.05 in 10.0 mi South 4.6 mph - N/A   Clear
5:35 AM 69.8 °F - 62.6 °F 78% 30.04 in 10.0 mi South 6.9 mph - N/A   Clear
5:55 AM 71.6 °F - 62.6 °F 73% 30.05 in 10.0 mi SSW 6.9 mph - N/A   Clear
6:15 AM 71.6 °F - 64.4 °F 78% 30.06 in 10.0 mi SSW 4.6 mph - N/A   Mostly Cloudy
6:35 AM 71.6 °F - 64.4 °F 78% 30.05 in 10.0 mi SSW 6.9 mph - N/A   Scattered Clouds
6:55 AM 73.4 °F - 64.4 °F 73% 30.05 in 10.0 mi SSW 4.6 mph - N/A   Clear
7:15 AM 73.4 °F - 64.4 °F 73% 30.06 in 10.0 mi SW 4.6 mph - N/A   Clear
7:35 AM 73.4 °F - 66.2 °F 78% 30.06 in 10.0 mi SSW 4.6 mph - N/A   Clear
7:55 AM 75.2 °F - 66.2 °F 73% 30.06 in 10.0 mi SSW 5.8 mph - N/A   Clear
8:16 AM 77.0 °F - 66.2 °F 69% 30.07 in 10.0 mi SW 8.1 mph - N/A   Clear
8:36 AM 78.8 °F - 66.2 °F 65% 30.08 in 10.0 mi SW 6.9 mph - N/A   Clear
8:56 AM 78.8 °F - 66.2 °F 65% 30.08 in 10.0 mi WSW 9.2 mph - N/A   Clear
9:16 AM 80.6 °F 83.2 °F 68.0 °F 65% 30.08 in 10.0 mi WSW 11.5 mph - N/A   Clear
9:36 AM 80.6 °F 83.9 °F 69.8 °F 70% 30.09 in 10.0 mi WSW 13.8 mph - N/A   Clear
9:56 AM 82.4 °F 86.3 °F 69.8 °F 66% 30.09 in 10.0 mi WSW 10.4 mph - N/A   Clear
10:16 AM 82.4 °F 86.3 °F 69.8 °F 66% 30.09 in 10.0 mi West 11.5 mph - N/A   Clear
10:31 AM 82.4 °F 86.3 °F 69.8 °F 66% 30.09 in 10.0 mi WSW 10.4 mph 17.3 mph N/A   Clear
10:51 AM 84.2 °F 88.4 °F 69.8 °F 62% 30.09 in 10.0 mi WSW 10.4 mph - N/A   Clear
11:12 AM 84.2 °F 88.4 °F 69.8 °F 62% 30.08 in 10.0 mi WSW 8.1 mph - N/A   Clear
11:32 AM 84.2 °F 89.6 °F 71.6 °F 66% 30.07 in 10.0 mi SW 9.2 mph - N/A   Clear
11:52 AM 86.0 °F 91.8 °F 71.6 °F 62% 30.07 in 10.0 mi WSW 11.5 mph - N/A   Clear
12:12 PM 86.0 °F 91.8 °F 71.6 °F 62% 30.08 in 10.0 mi SW 10.4 mph - N/A   Clear
12:32 PM 87.8 °F 93.8 °F 71.6 °F 58% 30.08 in 10.0 mi West 10.4 mph - N/A   Clear
12:52 PM 87.8 °F 93.8 °F 71.6 °F 58% 30.08 in 10.0 mi WSW 13.8 mph 17.3 mph N/A   Clear
1:12 PM 87.8 °F 93.8 °F 71.6 °F 58% 30.08 in 10.0 mi West 8.1 mph - N/A   Clear
1:32 PM 87.8 °F 93.8 °F 71.6 °F 58% 30.07 in 10.0 mi WSW 10.4 mph 17.3 mph N/A   Scattered Clouds
1:52 PM 89.6 °F 98.2 °F 73.4 °F 59% 30.06 in 10.0 mi West 9.2 mph - N/A   Scattered Clouds
2:13 PM 89.6 °F 98.2 °F 73.4 °F 59% 30.05 in 10.0 mi WSW 9.2 mph - N/A   Scattered Clouds
2:33 PM 89.6 °F 96.2 °F 71.6 °F 55% 30.04 in 10.0 mi SW 8.1 mph - N/A   Scattered Clouds
2:53 PM 89.6 °F 96.2 °F 71.6 °F 55% 30.04 in 10.0 mi SSW 8.1 mph - N/A   Scattered Clouds
3:13 PM 91.4 °F 98.4 °F 71.6 °F 52% 30.04 in 10.0 mi SSW 10.4 mph - N/A   Scattered Clouds
3:33 PM 89.6 °F 98.2 °F 73.4 °F 59% 30.02 in 10.0 mi SSW 11.5 mph 18.4 mph N/A   Scattered Clouds
3:53 PM 91.4 °F 98.4 °F 71.6 °F 52% 30.00 in 10.0 mi SSW 13.8 mph - N/A   Scattered Clouds
4:14 PM 87.8 °F 92.6 °F 69.8 °F 55% 30.00 in 10.0 mi NNW 10.4 mph - N/A   Mostly Cloudy
4:34 PM 80.6 °F 83.9 °F 69.8 °F 70% 30.00 in 1.5 mi NE 8.1 mph - N/A   Haze
4:54 PM 73.4 °F - 69.8 °F 88% 30.02 in 5.0 mi NNW 20.7 mph 29.9 mph N/A Rain Light Rain
5:14 PM 73.4 °F - 69.8 °F 88% 30.05 in 1.8 mi North 19.6 mph 28.8 mph N/A Rain Heavy Rain
5:34 PM 71.6 °F - 68.0 °F 88% 30.10 in 4.0 mi WSW 15.0 mph 28.8 mph N/A Rain Heavy Rain
5:54 PM 71.6 °F - 68.0 °F 88% 30.06 in 4.0 mi South 6.9 mph - N/A Rain Heavy Rain
6:14 PM 71.6 °F - 69.8 °F 94% 30.03 in 10.0 mi South 8.1 mph - N/A Rain Light Rain
6:34 PM 71.6 °F - 68.0 °F 88% 30.01 in 1.5 mi Calm Calm - N/A Rain Light Rain
6:55 PM 71.6 °F - 69.8 °F 94% 30.00 in 10.0 mi WNW 3.5 mph - N/A Rain Light Rain
7:15 PM 73.4 °F - 69.8 °F 88% 30.02 in 10.0 mi WSW 5.8 mph - N/A   Light Drizzle
7:35 PM 73.4 °F - 69.8 °F 88% 30.01 in 10.0 mi WSW 3.5 mph - N/A Rain Light Rain
7:55 PM 73.4 °F - 69.8 °F 88% 30.00 in 10.0 mi Calm Calm - N/A Rain Light Rain
8:15 PM 75.2 °F - 71.6 °F 89% 30.00 in 10.0 mi SW 4.6 mph - N/A   Clear
8:35 PM 73.4 °F - 71.6 °F 94% 30.02 in 10.0 mi WSW 5.8 mph - N/A   Clear
8:55 PM 73.4 °F - 71.6 °F 94% 30.03 in 10.0 mi WSW 3.5 mph - N/A Rain Light Rain
9:15 PM 75.2 °F - 69.8 °F 83% 30.03 in 10.0 mi SW 8.1 mph - N/A   Scattered Clouds
9:35 PM 73.4 °F - 71.6 °F 94% 30.03 in 10.0 mi South 6.9 mph - N/A Rain Light Rain
9:56 PM 73.4 °F - 69.8 °F 88% 30.04 in 10.0 mi SW 5.8 mph - N/A   Mostly Cloudy
10:16 PM 73.4 °F - 69.8 °F 88% 30.05 in 10.0 mi SSW 5.8 mph - N/A   Scattered Clouds
10:36 PM 73.4 °F - 69.8 °F 88% 30.06 in 10.0 mi SSW 4.6 mph - N/A   Clear
10:56 PM 73.4 °F - 69.8 °F 88% 30.05 in 10.0 mi South 3.5 mph - N/A   Scattered Clouds
11:16 PM 73.4 °F - 69.8 °F 88% 30.05 in 10.0 mi Calm Calm - N/A   Scattered Clouds
11:36 PM 73.4 °F - 69.8 °F 88% 30.04 in 10.0 mi SW 4.6 mph - N/A   Clear
11:56 PM 73.4 °F - 69.8 °F 88% 30.04 in 10.0 mi WSW 4.6 mph - N/A   Clear